Regional Weather Roundup
Issued by NWS

Home | Current Version | Previous Version | Graphics & Text | Print | Product List | Glossary On
Versions: 1 2 3 4 5 6 7 8 9 10 11 12 13 14 15 16 17 18 19 20 21 22 23 24 25 26 27
000
ASUS45 KBOU 212107
RWRCO

WEATHER ROUNDUP FOR COLORADO
NATIONAL WEATHER SERVICE DENVER/BOULDER CO
300 PM MDT FRI JUL 21 2017

NOTE: "FAIR" INDICATES FEW OR NO CLOUDS BELOW 12000 FEET WITH NO
SIGNIFICANT WEATHER AND/OR OBSTRUCTIONS TO VISIBILITY.

COZ001>005-013-030-031-212200-
...NORTHWEST COLORADO...

CITY           SKY/WX    TMP DP  RH WIND       PRES   REMARKS
CRAIG          FAIR      85  45  24 W8        30.16F
HAYDEN         FAIR      84  45  24 S7G18     30.19F
MEEKER         FAIR      80  52  37 SW9       30.20F
RABBIT EARS PA FAIR      61  46  59 NW8G18    30.55S THUNDER
STEAMBOAT SPGS FAIR      82  48  31 S7        30.22F
WALDEN         CLOUDY    61  48  63 N10       30.34F
$$

COZ006>008-011-212200-
...WEST CENTRAL VALLEYS...

CITY           SKY/WX    TMP DP  RH WIND       PRES   REMARKS
GRAND JUNCTION FAIR      92  48  22 W9        30.06F
MONTROSE       PTSUNNY   73  51  46 S21G30    30.21R
EAGLE          PTSUNNY   75  52  43 W10       30.25R
RIFLE          FAIR      84  51  31 NE6       30.14F
DELTA          FAIR      97  44  16 S10G20    30.10S
NUCLA          NOT AVBL
$$

COZ017>023-064>068-212200-
...SOUTHWEST COLORADO...

CITY           SKY/WX    TMP DP  RH WIND       PRES   REMARKS
DURANGO        FAIR      79  47  32 NW6       30.20F
CORTEZ         CLOUDY    81  55  40 N14G25    30.17F THUNDER
PAGOSA SPRINGS FAIR      82  42  23 SE3       30.28F
TELLURIDE      CLOUDY    61  53  75 CALM      30.47F
WOLF CREEK PAS CLOUDY    46  43  87 SE10G17   30.70S
$$

COZ009-010-012-014-032>034-037-058>063-212200-
...CENTRAL COLORADO...

CITY           SKY/WX    TMP DP  RH WIND       PRES   REMARKS
ASPEN          CLOUDY    73  51  46 VRB3      30.32R
BUENA VISTA    FAIR      82  33  17 S9        30.26S
COPPER MTN     TSTM      59  43  55 S8G17     30.67R
BERTHOUD PASS  CLOUDY    50  36  57 MISG      30.69F
COTTONWOOD PAS CLOUDY    73  32  21 SE10G16   30.44F
GUNNISON       FAIR      78  47  33 W13       30.26F
KREMMLING      MIX PCPN  73  52  46 W9        30.28S
LEADVILLE      PTSUNNY   66  38  35 NW12      30.42R
SALIDA         PTSUNNY   85  35  17 S9        30.29F
SUNLIGHT       FAIR      57  43  58 CALM      30.60R
WILKERSON PASS FAIR      70  32  24 S6        30.60F
$$

COZ069>075-212200-
...SAN LUIS VALLEY/SANGRE DE CRISTO MOUNTAINS...

CITY           SKY/WX    TMP DP  RH WIND       PRES   REMARKS
ALAMOSA        FAIR      82  42  24 SE7       30.25F
DEL NORTE      FAIR      79  46  31 SW10      30.31F
LA VETA PASS   NOT AVBL
SAGUACHE         N/A    N/A N/A N/A MISG        N/A
$$

COZ035-036-038>040-212200-
...NORTHERN COLORADO FRONT RANGE...

CITY           SKY/WX    TMP DP  RH WIND       PRES   REMARKS
DENVER INTL AP FAIR      92  44  19 SE7       30.06F
DMNS CITY PARK   N/A     86  40  19 SW10G24   30.08R
AURORA         PTSUNNY   89  46  22 W3        30.10F
FRONT RANGE AP CLOUDY    91  43  18 NE7       30.09F
ERIE MUNI ARPT FAIR      94  38  14 NE9       30.06S
BOULDER MUN AP FAIR      90  45  20 NE7       30.07S
CENTENNIAL     PTSUNNY   88  43  20 NW12      30.12F
BROOMFIELD     PTSUNNY   93  41  16 E12       30.11F
FORT COLLINS   PTSUNNY   92  47  21 NE10G20   30.06F
LONGMONT       FAIR      92  46  20 E6        30.07S
$$

COZ041-046-047-076>085-087-088-212200-
...PIKES PEAK/PALMER DIVIDE AND SOUTHERN FOOTHILLS...

CITY           SKY/WX    TMP DP  RH WIND       PRES   REMARKS
COLO. SPRINGS  PTSUNNY   90  50  25 S5G16     30.14F
A. F. ACADEMY  FAIR      85  51  30 S10       30.16F
SCHRIEVER AFB  FAIR      87  48  25 SE7       30.15F
CHEYENNE MTN   FAIR      86  45  23 S8G17     30.15F
ELLICOTT       FAIR       1 N/A N/A VRB3      30.13F
FALCON           N/A     87  47  24 SE9       30.21F
FORT CARSON    FAIR      90  48  23 SE7       30.11F
LIMON          FAIR      90  51  26 CALM      30.08F
MONUMENT HILL  FAIR      81  46  30 SE7       30.24F
CANON CITY     SUNNY     97  48  19 E8        30.05F
WALSENBURG     FAIR      97  41  14 NE8       30.11F
TRINIDAD       FAIR      91  38  15 VRB3      30.10F
$$

COZ042>045-048>051-090-091-212200-
...NORTHEAST COLORADO...

CITY           SKY/WX    TMP DP  RH WIND       PRES   REMARKS
GREELEY ARPT   FAIR      95  51  22 VRB6      30.03F
AKRON          FAIR      97  47  18 VRB5      30.02F
BURLINGTON     FAIR      98  52  21 SE10      29.97F
WRAY           NOT AVBL
YUMA           FAIR      95  54  24 SE5       29.98F
STERLING       FAIR      99  54  22 NE7       29.96F
HOLYOKE        FAIR     102  50  17 SW3       29.94F
FORT MORGAN    PTSUNNY   96  41  15 NW9       30.02S
$$

COZ086-089-092>099-212200-
...SOUTHEAST COLORADO...

CITY           SKY/WX    TMP DP  RH WIND       PRES   REMARKS
PUEBLO         FAIR      97  48  18 SE10      30.00F
LA JUNTA       FAIR      97  55  24 VRB5      29.97F
LAMAR          FAIR     100  52  19 SW7       29.91F
SPRINGFIELD      N/A     95  51  22 SE12G20   30.00F
$$




USA.gov is the U.S. government's official web portal to all federal, state and local government web resources and services.